When you browse on this site, cookies collect data to enhance your experience and personalize the content and advertising you see.
Visit our Privacy Policy to learn more. By continuing to use the site, you agree to this use of cookies and data.
  • In Romania
  • List of Countries
  • For 7 days
  • Water Temperature
  • Satellite Maps
  • Weather Map
  • Weather Widgets
  • user-avatar
    Login

    Hourly Weather Kosyachiha

    Today, 19 February, Tuesday

    Time Temperature Precipitation Wind Pressure Humidity
    00:00 -10°C° 0 mm 3 mps 751 mmHg 83%
    01:00 -10°C° 0 mm 4 mps 750 mmHg 80%
    02:00 -8°C° 0 mm 4 mps 749 mmHg 77%
    03:00 -8°C° 0 mm 5 mps 748 mmHg 78%
    04:00 -8°C° 0 mm 5 mps 747 mmHg 78%
    05:00 -8°C° 0 mm 5 mps 746 mmHg 78%
    06:00 -8°C° 0 mm 5 mps 745 mmHg 79%
    07:00 -7°C° 0 mm 4 mps 745 mmHg 79%
    08:00 -7°C° 0 mm 4 mps 744 mmHg 80%
    09:00 -5°C° 0 mm 4 mps 744 mmHg 80%
    10:00 -4°C° 0 mm 5 mps 744 mmHg 81%
    11:00 -2°C° 0 mm 5 mps 743 mmHg 82%
    12:00 -1°C° 0 mm 5 mps 743 mmHg 83%
    13:00 -1°C° 0 mm 4 mps 743 mmHg 85%
    14:00 -1°C° 0 mm 4 mps 742 mmHg 86%
    15:00 -1°C° 0 mm 4 mps 742 mmHg 87%
    16:00 -1°C° 0 mm 4 mps 742 mmHg 88%
    17:00 -1°C° 0 mm 4 mps 741 mmHg 89%
    18:00 -1°C° 0 mm 4 mps 741 mmHg 89%
    19:00 -1°C° 0 mm 3 mps 740 mmHg 90%
    20:00 -1°C° 0 mm 3 mps 740 mmHg 90%
    21:00 -1°C° 0 mm 3 mps 739 mmHg 90%
    22:00 -2°C° 0 mm 4 mps 738 mmHg 90%
    23:00 -2°C° 0 mm 4 mps 737 mmHg 89%

    Tomorrow, 20 February, Wednesday

    Time Temperature Precipitation Wind Pressure Humidity
    00:00 -2°C° 0.1 mm 4 mps 737 mmHg 89%
    01:00 -1°C° 0.1 mm 4 mps 736 mmHg 89%
    02:00 -1°C° 0.1 mm 4 mps 735 mmHg 89%
    03:00 -1°C° 0.1 mm 4 mps 735 mmHg 89%
    04:00 -1°C° 0.1 mm 4 mps 734 mmHg 89%
    05:00 -1°C° 0.1 mm 4 mps 733 mmHg 89%
    06:00 -1°C° 0.2 mm 4 mps 733 mmHg 90%
    07:00 -1°C° 0.2 mm 4 mps 733 mmHg 91%
    08:00 0°C° 0.2 mm 4 mps 733 mmHg 92%
    09:00 0°C° 0 mm 4 mps 733 mmHg 92%
    10:00 0°C° 0 mm 4 mps 733 mmHg 91%
    11:00 0°C° 0 mm 4 mps 733 mmHg 90%
    12:00 0°C° 0.1 mm 4 mps 733 mmHg 90%
    13:00 0°C° 0.1 mm 4 mps 733 mmHg 90%
    14:00 0°C° 0.1 mm 4 mps 733 mmHg 90%
    15:00 0°C° 0.1 mm 4 mps 733 mmHg 91%
    16:00 +1°C° 0.1 mm 3 mps 733 mmHg 92%
    17:00 0°C° 0.1 mm 3 mps 732 mmHg 93%
    18:00 0°C° 0.2 mm 3 mps 732 mmHg 93%
    19:00 0°C° 0.2 mm 3 mps 732 mmHg 92%
    20:00 0°C° 0.2 mm 3 mps 732 mmHg 92%
    21:00 0°C° 0.1 mm 3 mps 732 mmHg 93%
    22:00 0°C° 0.1 mm 3 mps 732 mmHg 94%
    23:00 +1°C° 0.1 mm 2 mps 731 mmHg 95%

    Day after tomorrow, 21 February, Thursday

    Time Temperature Precipitation Wind Pressure Humidity
    00:00 +1°C° 0.3 mm 2 mps 732 mmHg 95%
    01:00 +1°C° 0.3 mm 2 mps 732 mmHg 95%
    02:00 +1°C° 0.3 mm 2 mps 732 mmHg 95%
    03:00 -1°C° 0.4 mm 2 mps 732 mmHg 95%
    04:00 -1°C° 0.4 mm 2 mps 732 mmHg 95%
    05:00 -1°C° 0.4 mm 3 mps 732 mmHg 95%
    06:00 -2°C° 0.7 mm 3 mps 733 mmHg 93%
    07:00 -4°C° 0.7 mm 4 mps 734 mmHg 92%
    08:00 -6°C° 0.7 mm 5 mps 734 mmHg 91%
    09:00 -6°C° 0.3 mm 5 mps 735 mmHg 89%
    10:00 -6°C° 0.3 mm 6 mps 736 mmHg 88%
    11:00 -6°C° 0.3 mm 6 mps 737 mmHg 86%
    12:00 -8°C° 0.1 mm 6 mps 738 mmHg 84%
    13:00 -9°C° 0.1 mm 6 mps 739 mmHg 82%
    14:00 -10°C° 0.1 mm 6 mps 740 mmHg 80%
    15:00 -11°C° 0.1 mm 6 mps 742 mmHg 80%
    16:00 -11°C° 0.1 mm 6 mps 743 mmHg 79%
    17:00 -12°C° 0.1 mm 6 mps 744 mmHg 79%
    18:00 -12°C° 0.1 mm 6 mps 745 mmHg 78%
    19:00 -14°C° 0.1 mm 6 mps 746 mmHg 77%
    20:00 -14°C° 0.1 mm 6 mps 747 mmHg 76%
    21:00 -14°C° 0 mm 6 mps 747 mmHg 76%
    22:00 -15°C° 0 mm 6 mps 748 mmHg 76%
    23:00 -15°C° 0 mm 6 mps 749 mmHg 76%

    22 February, Friday

    Time Temperature Precipitation Wind Pressure Humidity
    00:00 -15°C° 0 mm 6 mps 749 mmHg 77%
    01:00 -16°C° 0 mm 6 mps 750 mmHg 78%
    02:00 -16°C° 0 mm 6 mps 750 mmHg 78%
    03:00 -16°C° 0 mm 6 mps 751 mmHg 78%
    04:00 -15°C° 0 mm 5 mps 751 mmHg 79%
    05:00 -17°C° 0 mm 5 mps 752 mmHg 79%
    06:00 -17°C° 0 mm 5 mps 752 mmHg 80%
    07:00 -17°C° 0 mm 5 mps 753 mmHg 80%
    08:00 -17°C° 0 mm 5 mps 753 mmHg 81%
    09:00 -15°C° 0 mm 5 mps 753 mmHg 79%
    10:00 -14°C° 0 mm 5 mps 753 mmHg 76%
    11:00 -15°C° 0 mm 6 mps 754 mmHg 74%
    12:00 -14°C° 0 mm 6 mps 754 mmHg 72%
    13:00 -14°C° 0 mm 6 mps 754 mmHg 70%
    14:00 -14°C° 0 mm 6 mps 754 mmHg 68%
    15:00 -15°C° 0 mm 6 mps 755 mmHg 70%
    16:00 -15°C° 0 mm 6 mps 756 mmHg 72%
    17:00 -16°C° 0 mm 6 mps 756 mmHg 74%
    18:00 -16°C° 0 mm 6 mps 757 mmHg 75%
    19:00 -15°C° 0 mm 5 mps 757 mmHg 76%
    20:00 -15°C° 0 mm 5 mps 758 mmHg 76%
    21:00 -15°C° 0 mm 5 mps 758 mmHg 78%
    22:00 -15°C° 0 mm 5 mps 758 mmHg 80%
    23:00 -16°C° 0 mm 4 mps 759 mmHg 81%

    23 February, Saturday

    Time Temperature Precipitation Wind Pressure Humidity
    00:00 -16°C° 0 mm 4 mps 759 mmHg 82%
    01:00 -16°C° 0 mm 4 mps 759 mmHg 84%
    02:00 -16°C° 0 mm 4 mps 760 mmHg 85%
    03:00 -17°C° 0 mm 4 mps 760 mmHg 87%
    04:00 -17°C° 0 mm 4 mps 760 mmHg 88%
    05:00 -16°C° 0 mm 3 mps 760 mmHg 90%
    06:00 -16°C° 0 mm 3 mps 760 mmHg 90%
    07:00 -16°C° 0 mm 3 mps 760 mmHg 90%
    08:00 -17°C° 0 mm 3 mps 761 mmHg 90%
    09:00 -15°C° 0 mm 3 mps 761 mmHg 87%
    10:00 -13°C° 0 mm 2 mps 761 mmHg 84%
    11:00 -12°C° 0 mm 2 mps 761 mmHg 81%
    12:00 -10°C° 0 mm 2 mps 761 mmHg 80%
    13:00 -9°C° 0 mm 2 mps 761 mmHg 79%
    14:00 -9°C° 0 mm 2 mps 761 mmHg 78%
    15:00 -9°C° 0 mm 2 mps 761 mmHg 82%
    16:00 -9°C° 0 mm 1 mps 761 mmHg 86%
    17:00 -9°C° 0 mm 1 mps 761 mmHg 90%
    18:00 -10°C° 0 mm 1 mps 761 mmHg 90%
    19:00 -10°C° 0 mm 1 mps 761 mmHg 90%
    20:00 -10°C° 0 mm 1 mps 761 mmHg 90%
    21:00 -12°C° 0 mm 2 mps 761 mmHg 89%
    22:00 -10°C° 0 mm 2 mps 761 mmHg 88%
    23:00 -10°C° 0 mm 2 mps 761 mmHg 86%

    24 February, Sunday

    Time Temperature Precipitation Wind Pressure Humidity
    00:00 -10°C° 0 mm 2 mps 761 mmHg 89%
    01:00 -10°C° 0 mm 2 mps 761 mmHg 91%
    02:00 -12°C° 0 mm 2 mps 761 mmHg 93%
    03:00 -12°C° 0 mm 2 mps 761 mmHg 94%
    04:00 -12°C° 0 mm 2 mps 761 mmHg 95%
    05:00 -12°C° 0 mm 2 mps 760 mmHg 96%
    06:00 -10°C° 0 mm 2 mps 761 mmHg 95%
    07:00 -10°C° 0 mm 2 mps 761 mmHg 95%
    08:00 -9°C° 0 mm 2 mps 761 mmHg 94%
    09:00 -8°C° 0 mm 2 mps 761 mmHg 93%
    10:00 -7°C° 0 mm 2 mps 760 mmHg 91%
    11:00 -6°C° 0 mm 2 mps 760 mmHg 89%
    12:00 -6°C° 0 mm 3 mps 760 mmHg 89%
    13:00 -6°C° 0 mm 3 mps 760 mmHg 89%
    14:00 -5°C° 0 mm 3 mps 759 mmHg 89%
    15:00 -5°C° 0 mm 3 mps 759 mmHg 90%
    16:00 -5°C° 0 mm 3 mps 758 mmHg 91%
    17:00 -4°C° 0 mm 3 mps 758 mmHg 92%
    18:00 -4°C° 0.1 mm 3 mps 757 mmHg 92%
    19:00 -4°C° 0.1 mm 3 mps 757 mmHg 93%
    20:00 -4°C° 0.1 mm 3 mps 756 mmHg 93%
    21:00 -2°C° 0.2 mm 3 mps 756 mmHg 93%
    22:00 -3°C° 0.2 mm 4 mps 755 mmHg 93%
    23:00 -3°C° 0.2 mm 4 mps 754 mmHg 93%
    Show more